Regional Weather Roundup
Issued by NWS Kansas City/Pleasant Hill, MO

Home | Current Version | Previous Version | Graphics & Text | Print | Product List | Glossary Off
Versions: 1 2 3 4 5 6 7 8 9 10 11 12 13 14 15 16 17 18 19 20 21 22 23 24 25 26 27 28 29 30 31 32 33 34 35 36 37 38 39 40 41 42 43 44 45 46 47 48 49 50

000
ASUS43 KEAX 282004
RWREAX

WEATHER ROUNDUP FOR EASTERN KANSAS AND NORTHWEST MISSOURI
NATIONAL WEATHER SERVICE KANSAS CITY/PLEASANT HILL MO
300 PM CDT THU MAY 28 2015

KSZ040-057-103>105-MOZ028-029-037-043-282100-
...KANSAS CITY METROPOLITAN AREA...

CITY           SKY/WX    TMP DP  RH WIND       PRES   REMARKS
K.C. INTL      CLOUDY    69  65  86 S12       30.05F
K.C. DOWNTOWN  LGT RAIN  72  65  78 S8        30.04F
LEES SUMMIT    CLOUDY    69  66  90 SW8       30.08F
OLATHE - IXD   LGT RAIN  69  66  90 S10       30.06F
OLATHE - OJC   LGT RAIN  69  67  93 S9        30.05F
LAWRENCE       CLOUDY    70  64  81 S9        30.04F

$$

MOZ001>008-011>017-020>025-030>033-038>040-044>046-053-054-282100-
...NORTHERN AND CENTRAL MISSOURI...

CITY           SKY/WX    TMP DP  RH WIND       PRES   REMARKS
ST. JOSEPH     CLOUDY    72  65  78 S7        30.05F
MOSBY          CLOUDY    70  66  88 S5        30.07S
WARRENSBURG    TSTM      64  63  94 S20G25    30.08R
WHITEMAN AFB   TSTM      78  67  68 SW26G38   30.07R
CLINTON          N/A    N/A N/A N/A MISG        N/A
SEDALIA        LGT RAIN  71  63  75 SE18G26   30.05F
WARSAW         NOT AVBL
CHILLICOTHE      N/A     77  68  73 S7        30.05F
KIRKSVILLE     PTSUNNY   78  65  63 SE14      30.06F

$$

MOZ041-047>049-056>058-063>065-088>090-097-282100-
...EASTERN AND SOUTHERN MISSOURI...

CITY           SKY/WX    TMP DP  RH WIND       PRES   REMARKS
ST. LOUIS INTL PTSUNNY   83  62  49 S9        30.10F
SPIRIT OF STL  TSTM      68  65  90 E7        30.10R
COLUMBIA       CLOUDY    75  69  81 S5        30.07F
JEFFERSON CITY CLOUDY    76  63  64 CALM      30.06F
ROLLA          PTSUNNY   81  68  64 S15       30.07F
OSAGE BEACH    CLOUDY    81  68  65 SW10      30.06F
SPRINGFIELD    CLOUDY    77  68  73 S14       30.06F
BRANSON        CLOUDY    75  68  78 S8        30.09F
JOPLIN         CLOUDY    72  66  81 SW3       30.05F
WEST PLAINS    PTSUNNY   77  66  68 SE9       30.12F

$$

IAZ060-094-KSZ022-034>040-054-083-096-NEZ052-066-093-282100-
...KANSAS...SOUTHEAST NEBRASKA AND IOWA...

CITY           SKY/WX    TMP DP  RH WIND       PRES   REMARKS
TOPEKA         CLOUDY    72  65  78 S13       30.04F
MANHATTAN      CLOUDY    75  66  73 S13       30.01F
EMPORIA        CLOUDY    73  63  70 S20G28    30.02F
CHANUTE        CLOUDY    72  65  78 S10       30.02F
WICHITA        PTSUNNY   76  63  64 S18       30.00F
OMAHA          LGT RAIN  71  65  81 SE17      30.02F
LINCOLN        CLOUDY    72  65  78 SE13      30.00F
FALLS CITY     LGT RAIN  69  65  86 SE16      30.03F
LAMONI         CLOUDY    75  64  68 SE9       30.07F
DES MOINES     LGT RAIN  73  61  65 S10       30.06F

$$



USA.gov is the U.S. government's official web portal to all federal, state and local government web resources and services.